Location: ???
(35.5616°N, 139.7977°E)
Time: 19:24:53
(UTC+00:00)

Chandra Rocket (1) - Pass Details

Date: 17 November 2025
Orbit: 252 x 10539 km, 28.5° (Epoch: 08 December)

Event Time Altitude Azimuth Distance (km) Brightness Sun altitude
Exits shadow 19:26:12 31° 218° (SW) 1,383 3.5 -22.9°
Maximum altitude 19:27:55 40° 177° (S) 1,453 3.9 -22.5°
Drops below altitude 10° 19:39:16 10° 114° (ESE) 5,536 8.0 -20.3°
Sets 19:47:35 0° 109° (ESE) 8,403 9.4 -18.6°
